This is the latest recevied weather packets stored in our database for station/object S56VIL-11. If no packets are shown the sender has not sent any weather packets the latest 10 day(s).
| Time | Temp. | Humidity | Pressure | Rain* | Wind** | Luminosity | Snow |
|---|---|---|---|---|---|---|---|
| 1788143503 | 18.89° C | 64% | 1029.7 hPa | - | - | - | - |
| 1788122802 | 21.11° C | 62% | 1030.3 hPa | - | - | - | - |
| 1788121902 | 21.11° C | 62% | 1030.5 hPa | - | - | - | - |
| 1788121002 | 21.11° C | 62% | 1030.5 hPa | - | - | - | - |
| 1788119202 | 21.67° C | 61% | 1030.5 hPa | - | - | - | - |
| 1788118302 | 21.67° C | 61% | 1030.4 hPa | - | - | - | - |
| 1788117402 | 21.67° C | 61% | 1030.4 hPa | - | - | - | - |
| 1788116502 | 21.67° C | 61% | 1030.2 hPa | - | - | - | - |
| 1788115602 | 21.67° C | 61% | 1030.1 hPa | - | - | - | - |
| 1788114702 | 22.22° C | 61% | 1029.9 hPa | - | - | - | - |
| 1788113802 | 22.78° C | 61% | 1029.8 hPa | - | - | - | - |
| 1788112902 | 22.78° C | 61% | 1029.7 hPa | - | - | - | - |
| 1788112002 | 23.33° C | 60% | 1029.5 hPa | - | - | - | - |
| 1788111102 | 23.89° C | 61% | 1029.5 hPa | - | - | - | - |
| 1788110202 | 23.89° C | 61% | 1029.5 hPa | - | - | - | - |
| 1788109302 | 24.44° C | 60% | 1029.5 hPa | - | - | - | - |
| 1788107501 | 28.89° C | 59% | 1029.5 hPa | - | - | - | - |
| 1788105701 | 27.78° C | 60% | 1029.7 hPa | - | - | - | - |
| 1788104801 | 27.78° C | 59% | 1029.6 hPa | - | - | - | - |
| 1788103901 | 27.22° C | 60% | 1029.7 hPa | - | - | - | - |
| 1788103005 | 27.22° C | 59% | 1029.7 hPa | - | - | - | - |
| 1788102101 | 27.78° C | 60% | 1029.8 hPa | - | - | - | - |
| 1788100301 | 27.78° C | 60% | 1030 hPa | - | - | - | - |
| 1788099401 | 30.56° C | 59% | 1030 hPa | - | - | - | - |
| 1788098501 | 31.67° C | 59% | 1030.1 hPa | - | - | - | - |
* Rain since midnight (hover to see other rain measurements)
** Current wind speed in m/s (hover to see current wind gust speed)